Location: *
(2.5500°S, 65.9667°W)
Time: 03:57:56
(UTC+00:00)

Okean O Rocket - Pass Details

Date: 04 June 2022
Orbit: 623 x 643 km, 98.2° (Epoch: 04 July)

Event Time Altitude Azimuth Distance (km) Brightness Sun altitude
Exits shadow 00:13:51 19° 212° (SSW) 1,495 3.6 -26.7°
Maximum altitude 00:16:02 29° 257° (WSW) 1,146 3.3 -27.2°
Drops below altitude 10° 00:19:47 10° 318° (NW) 1,984 5.0 -28.1°
Sets 00:22:11 0° 329° (NNW) 2,886 5.8 -28.6°
